SENTINEL-5P (42969 NORAD) Tracking and Keplerian Element Data

This shows tracking and keplerian element data for the satellite.

Feedback or suggestion? Click here.




ElementValue
Catalog42969
NameSENTINEL-5P
Epoch Orbit7391
Epoch Day77.44178689
Epoch Year2019
RAAN18.1519
Inclination98.7284
Eccentricity0.0001029
Argument of Perigee82.7705
Mean Anonmoly277.3588
Mean Motion14.19554125
Decay Rate-2.1E-07
L11 42969U 17064A 19077.44178689 -.00000021 00000-0 10942-4 0 9993
L22 42969 98.7284 18.1519 0001029 82.7705 277.3588 14.19554125 73913

Live tracking and technical data element details for SENTINEL-5P (NORAD 42969). SENTINEL-5P can be tracked NOW for your location showing map with azimuth and elevation plus other details from your city location.

Track the satellite on the map from your city or location and see movement details for azimuth, elevation, latitude, longitude, range, height, and movement on the map or in text.







IsCatalogInMostPopularTable: catalog: 42969, numindb: 206
Update: records affected: 1



GetName: 42969 SENTINEL-5P

Hit Count: updated at: Wed, 20 Mar 2019 05:35:51 GMT